www.pogodaiklimat.ru

Архив погоды в Белграде (Сербия)

Время
(UTC), дата
07 26.01
08 26.01
09 26.01
10 26.01
11 26.01
12 26.01
13 26.01
14 26.01
15 26.01
16 26.01
17 26.01
18 26.01
19 26.01
20 26.01
21 26.01
22 26.01
23 26.01
00 27.01
01 27.01
02 27.01
03 27.01
04 27.01
05 27.01
06 27.01
07 27.01
08 27.01
09 27.01
10 27.01
11 27.01
12 27.01
13 27.01
14 27.01
15 27.01
16 27.01
17 27.01
18 27.01
19 27.01
20 27.01
21 27.01
22 27.01
23 27.01
00 28.01
01 28.01
02 28.01
03 28.01
04 28.01
05 28.01
06 28.01
07 28.01
08 28.01
09 28.01
10 28.01
11 28.01
12 28.01
13 28.01
14 28.01
15 28.01
16 28.01
17 28.01
18 28.01
19 28.01
20 28.01
21 28.01
22 28.01
23 28.01
00 29.01
01 29.01
02 29.01
03 29.01
04 29.01
05 29.01
06 29.01
07 29.01
08 29.01
09 29.01
10 29.01
11 29.01
12 29.01
13 29.01
14 29.01
15 29.01
16 29.01
17 29.01
18 29.01
19 29.01
20 29.01
21 29.01
22 29.01
23 29.01
00 30.01
01 30.01
02 30.01
03 30.01
04 30.01
05 30.01
06 30.01
07 30.01
08 30.01
09 30.01
10 30.01
11 30.01
12 30.01
13 30.01
14 30.01
15 30.01
16 30.01
17 30.01
18 30.01
19 30.01
20 30.01
21 30.01
22 30.01
23 30.01
00 31.01
01 31.01
02 31.01
03 31.01
04 31.01
05 31.01
06 31.01
07 31.01
08 31.01
09 31.01
10 31.01
11 31.01
12 31.01
13 31.01
14 31.01
15 31.01
16 31.01
17 31.01
18 31.01
19 31.01
20 31.01
21 31.01
22 31.01
23 31.01
00 1.02
01 1.02
02 1.02
03 1.02
04 1.02
05 1.02
06 1.02
07 1.02
08 1.02
09 1.02
10 1.02
11 1.02
12 1.02
13 1.02
14 1.02
15 1.02
16 1.02
17 1.02
18 1.02
19 1.02
20 1.02
21 1.02
22 1.02
23 1.02
00 2.02
01 2.02
03 2.02
04 2.02
05 2.02
06 2.02
07 2.02
Ветер
(напр.,м/с)
Видим. Явления Облачность Т
(С)
Тd
(С)
f
(%)
Тe
(С)
Тes
(С)
Комфортность P
(гПа)
Po
(гПа)
Тmin
(С)
Tmax
(С)
R
(мм)
R24
(мм)
S
(см)
В 4 15 км 10/10 1000 м
[Sc]
+1.0 -4.0 69 -4 -4 по сезону 1021.5 1004.9
В 4 12 км снежные зёрна 10/10 600 м
[St]
+1.0 -3.3 73 -4 -4 по сезону 1021.3 1004.7
В 4 10 км снежные зёрна 10/10 600 м
[St]
+1.0 -2.5 77 -4 -4 прохладно 1021.1 1004.5
В 5 8000 м снежные зёрна 10/10 600 м
[St]
+1.0 -2.5 77 -5 -5 по сезону 1020.5 1003.9
В 6 8000 м слаб. снег 10/10 600 м
[Cu Sc]
+1.4 -2.5 75 -5 -5 по сезону 1019.6 1003.0
В 4 8000 м слаб. снег 10/10 600 м
[Cu Sc]
+1.6 -2.5 74 -3 -3 прохладно 1018.7 1002.2 0.0
В 3 3000 м снег 10/10 600 м
[Cu Sc]
+1.0 -1.5 83 -3 -3 по сезону 1018.3 1001.7
В 4 2000 м слаб. снег 10/10 600 м
[Cu Sc]
+0.5 -1.5 86 -5 -5 по сезону 1018.1 1001.5
В 2 2000 м снег 10/5 300 м
[Frnb As op]
+0.4 -0.9 91 -3 -3 прохладно 1017.9 1001.3
СВ 2 1000 м снег 10/5 300 м
[Frnb As op]
+0.4 -0.6 93 -3 -3 по сезону 1017.6 1001.0
СВ 2 1000 м снег 10/5 300 м
[Frnb As op]
+0.4 -0.2 96 -3 -3 по сезону 1017.8 1001.2
СВ 2 2000 м снежные зёрна 10/10 300 м
[St]
+0.5 -0.2 95 -3 -3 по сезону 1017.3 1000.7 +1.7 2 1
СВ 3 4000 м слаб. снег 10/4 300 м
[Frnb As op]
+0.2 -0.6 94 -5 -5 по сезону 1016.9 1000.3
СВ 3 5000 м слаб. снег 10/4 300 м
[Frnb As op]
+0.1 -0.6 95 -5 -5 по сезону 1016.6 1000.0
СВ 4 8000 м слаб. снег 10/10 300 м
[Cu Sc]
+0.1 -0.6 95 -6 -6 прохладно 1016.2 999.6
СВ 3 8000 м дымка {снег} 10/10 300 м
[Cu Sc]
+0.2 -0.6 94 -5 -5 по сезону 1015.9 999.3
СВ 4 5000 м слаб. снег 10/10 300 м
[Cu Sc]
+0.2 -0.6 94 -5 -5 по сезону 1015.3 998.5
СВ 3 5000 м слаб. снег 10/10 300 м
[Sc]
+0.2 -0.9 92 -5 -5 прохладно 1015.0 998.4 0.2 1
СВ 4 5000 м слаб. снег 10/10 300 м
[Sc]
+0.2 -0.6 94 -5 -5 по сезону 1014.6 998.0
СВ 2 3000 м слаб. снег 10/0
[As op]
+0.2 -0.6 94 -4 -4 тепло 1014.3 997.7
СВ 2 3000 м снег 10/0
[As op]
+0.1 -0.6 95 -4 -4 по сезону 1013.6 997.1
СВ 1 30 км слаб. снег 10/0
[As op]
+0.1 -0.6 95 -2 -2 по сезону 1013.2 996.7
СВ 1 2000 м слаб. снег 10/0
[As op]
+0.1 -0.6 95 -2 -2 тепло 1013.2 996.7
СВ 1 2000 м слаб. снег 10/10 600 м
[Ns]
+0.1 -0.6 95 -2 -2 по сезону 1013.2 996.7 0.0 3 5.2 2
СВ 1 2000 м слаб. снег 10/10 300 м
[Sc]
+0.2 -0.2 97 -2 -2 по сезону 1013.4 996.9
С 1 2000 м слаб. снег 10/10 300 м
[Sc]
+0.3 -0.6 94 -2 -2 тепло 1013.7 997.2
СЗ 1 1000 м слаб. снег 10/4 300 м
[Frnb As op]
+0.3 -0.6 94 -2 -1 по сезону 1013.9 997.4
СЗ 1 2000 м слаб. снег 10/10 300 м
[Sc]
+0.5 -0.6 92 -2 -2 по сезону 1013.9 997.4
С 1 2000 м слаб. снег 10/10 300 м
[Sc]
+0.7 -0.6 91 -1 -1 тепло 1013.6 997.1
С 2 4000 м слаб. снег 10/10 300 м
[Sc]
+0.7 -0.6 91 -3 -3 прохладно 1013.3 996.8 4 4
С 1 4000 м в посл. час снег 10/10 300 м
[Sc]
+0.7 -0.6 91 -1 -1 по сезону 1013.5 997.0
С 1 3000 м слаб. снег 10/10 300 м
[Sc]
+0.6 -0.2 94 -1 -1 тепло 1013.8 997.3
С 1 3000 м слаб. снег 10/10 300 м
[Sc]
+0.4 -0.2 96 -2 -2 по сезону 1014.2 997.6
СЗ 1 2000 м слаб. снег 10/10 300 м
[Sc]
+0.3 -0.2 96 -2 -2 по сезону 1014.6 998.0
СЗ 1 3000 м слаб. снег 10/10 300 м
[Sc]
+0.4 -0.2 96 -2 -2 тепло 1014.9 998.3
З 1 3000 м слаб. снег 10/10 300 м
[Sc]
+0.5 -0.2 95 -2 -2 по сезону 1015.1 998.5 +0.8 4 4
З 2 3000 м слаб. снег 10/10 300 м
[Sc]
+0.4 -0.2 96 -3 -3 по сезону 1015.6 999.0
З 2 1000 м слаб. снег 10/10 200 м
[Sc]
+0.3 -0.2 96 -3 -3 по сезону 1015.8 999.2
З 2 2000 м слаб. снег 10/10 200 м
[Sc]
+0.3 -0.2 96 -3 -3 по сезону 1016.0 999.4
З 2 2000 м слаб. снег 10/10 200 м
[Sc]
+0.4 +0.1 98 -3 -3 по сезону 1016.0 999.4
З 2 2000 м слаб. снег 10/10 200 м
[Sc]
+0.3 -0.2 96 -3 -3 тепло 1016.0 999.4
З 3 2000 м слаб. снег 10/10 200 м
[Sc]
+0.2 -0.2 97 -5 -5 прохладно 1016.1 999.5 2 4
З 2 2000 м слаб. снег 10/10 200 м
[Sc]
+0.2 -0.2 97 -4 -4 по сезону 1016.3 999.7
З 3 2000 м слаб. снег 10/10 200 м
[Sc]
+0.2 -0.2 97 -5 -5 по сезону 1016.4 999.8
З 3 2000 м слаб. снег 10/10 200 м
[Sc]
+0.3 -0.2 96 -5 -5 по сезону 1016.6 1000.0
З 2 2000 м слаб. снег 10/10 200 м
[Sc]
+0.3 -0.2 96 -3 -3 по сезону 1016.6 1000.0
З 2 2000 м слаб. снег 10/10 200 м
[Sc]
+0.4 +0.1 98 -3 -3 тепло 1016.9 1000.3
З 2 2000 м слаб. снег 10/10 300 м
[Sc]
+0.4 +0.1 98 -3 -3 по сезону 1017.3 1000.7 +0.1 2 6.6 4
СЗ 2 2000 м слаб. снег 10/10 300 м
[Sc]
+0.6 +0.1 96 -3 -3 по сезону 1018.0 1001.5
З 2 2000 м слаб. снег 10/10 300 м
[Sc]
+0.7 +0.4 98 -3 -3 тепло 1018.7 1002.1
З 2 1800 м снег 10/10 200 м
[Sc]
+0.6 +0.1 96 -3 -3 по сезону 1019.0 1002.4
З 2 1500 м слаб. снег 10/10 200 м
[Sc]
+0.8 +0.1 95 -3 -3 по сезону 1019.2 1002.6
З 2 1500 м слаб. снег 10/10 200 м
[Sc]
+0.8 +0.1 95 -3 -3 тепло 1019.3 1002.7
З 2 2000 м слаб. снег 10/10 200 м
[Sc]
+0.9 +0.4 96 -3 -3 прохладно 1019.2 1002.6 0.5 3
З 2 2000 м слаб. снег 10/10 200 м
[Sc]
+0.9 +0.1 94 -3 -3 по сезону 1019.3 1002.7
З 2 2000 м слаб. снег 10/10 200 м
[Sc]
+1.0 +0.4 96 -3 -3 по сезону 1019.9 1003.3
З 2 1500 м слаб. снег 10/10 50 м
[Sc]
+0.8 +0.6 99 -3 -3 по сезону 1020.3 1003.7
З 3 1500 м слаб. снег 10/10 200 м
[Sc]
+1.1 +0.6 96 -4 -4 по сезону 1020.5 1003.9
З 2 1500 м слаб. снег 10/10 200 м
[Sc]
+1.1 +0.6 96 -3 -3 по сезону 1021.3 1004.7
З 2 1500 м слаб. снег 10/10 200 м
[Sc]
+1.0 +0.6 97 -3 -3 по сезону 1021.9 1005.3 +1.2 0.9 3
З 2 2000 м слаб. снег 10/10 200 м
[Sc]
+1.0 +0.6 97 -3 -3 по сезону 1022.4 1005.8
З 2 2000 м слаб. снег 10/10 300 м
[Sc]
+1.1 +0.4 95 -3 -3 тепло 1022.6 1006.0
З 2 3000 м слаб. снег 10/10 300 м
[Sc]
+1.0 +0.4 96 -3 -3 по сезону 1022.8 1006.2
З 2 3000 м слаб. снег 10/10 300 м
[Sc]
+1.0 +0.1 94 -3 -3 по сезону 1023.1 1006.5
З 2 3000 м слаб. снег 10/10 300 м
[Sc]
+0.8 +0.1 95 -3 -3 тепло 1023.4 1006.8
З 2 3000 м слаб. снег 10/10 300 м
[Sc]
+0.7 +0.1 96 -3 -3 по сезону 1023.6 1007.0 0.4 3
З 2 3000 м слаб. снег 10/10 300 м
[Sc]
+0.7 +0.1 96 -3 -3 по сезону 1023.9 1007.3
З 2 3000 м слаб. снег 10/10 300 м
[Sc]
+0.6 -0.2 94 -3 -3 тепло 1023.9 1007.3
З 2 3000 м слаб. снег 10/10 300 м
[Sc]
+0.6 -0.2 94 -3 -3 по сезону 1024.1 1007.5
З 2 3000 м в посл. час снег 10/10 300 м
[Sc]
+0.7 +0.1 96 -3 -3 по сезону 1024.3 1007.7
З 2 3000 м слаб. снег 10/10 300 м
[Sc]
+0.7 +0.1 96 -3 -3 тепло 1024.7 1008.0
З 2 3000 м слаб. снег 10/10 300 м
[Sc]
+0.8 +0.1 95 -3 -3 по сезону 1025.1 1008.4 +0.6 0.7 1.6 3
З 2 3000 м слаб. снег 10/10 300 м
[Sc]
+0.9 +0.1 94 -3 -3 по сезону 1025.7 1009.0
СЗ 2 3000 м слаб. снег 10/10 300 м
[Sc]
+1.0 +0.1 94 -3 -3 тепло 1025.9 1009.2
СЗ 1 4000 м в посл. час снег 10/10 300 м
[Sc]
+1.2 -0.2 90 -1 -1 по сезону 1026.4 1009.7
С 1 4000 м дымка 10/10 300 м
[Sc]
+1.2 -0.9 86 -1 -1 по сезону 1026.3 1009.6
СЗ 1 4000 м дымка 10/10 300 м
[Sc]
+1.6 -0.6 85 -0 -0 тепло 1025.8 1009.2
СЗ 2 6000 м дымка {снег} 10/10 600 м
[Cu Sc]
+1.8 -1.2 80 -1 -1 по сезону 1025.6 1009.0 0.1
СЗ 2 8000 м дымка 10/10 600 м
[Cu Sc]
+1.9 -1.5 78 -1 -1 по сезону 1025.6 1009.0
СЗ 1 8000 м дымка 10/10 600 м
[Cu Sc]
+2.0 -0.9 81 0 0 тепло 1025.6 1009.0
СЗ 1 8000 м дымка 10/10 600 м
[Cu Sc]
+1.9 -0.9 82 0 0 по сезону 1025.7 1009.1
З 1 8000 м дымка 10/10 1000 м
[Sc]
+1.8 -0.9 82 0 0 по сезону 1025.5 1008.9
З 2 10 км 10/10 1000 м
[Sc]
+1.8 -1.2 80 -1 -1 тепло 1025.5 1008.9
З 2 10 км слаб. дождь 10/10 1000 м
[Sc]
+1.8 -0.9 82 -1 -1 по сезону 1025.6 1009.0 +2.1 0.1
СЗ 2 10 км слаб. дождь 10/10 600 м
[Sc]
+1.6 -0.2 88 -2 -2 по сезону 1025.6 1009.0
СЗ 2 10 км слаб. морось 10/10 600 м
[St]
+0.9 +0.1 94 -3 -3 тепло 1025.6 1008.9
СЗ 2 15 км в посл. час морось 10/10 600 м
[Sc]
+0.8 -0.6 90 -3 -3 по сезону 1025.7 1009.0
СЗ 1 20 км 10/10 600 м
[Sc]
+0.7 -4.0 71 -1 -1 по сезону 1025.6 1008.9
СЗ 1 20 км 10/10 600 м
[Sc]
+0.4 -3.0 78 -1 -1 тепло 1025.2 1008.5
С 1 20 км 10/10 600 м
[Sc]
+0.2 -5.7 65 -1 -1 по сезону 1024.8 1008.1 0.0
С 1 20 км 10/10 1000 м
[Sc]
+0.2 -6.1 63 -1 -1 по сезону 1024.6 1007.9
З 1 20 км 10/10 1000 м
[Sc]
+0.2 -6.6 60 -1 -1 тепло 1024.1 1007.4
З 2 20 км 10/10 600 м
[Sc]
+0.1 -3.3 78 -3 -3 по сезону 1023.5 1006.8
З 2 20 км 10/10 600 м
[Sc]
+0.1 -3.3 78 -3 -3 по сезону 1023.0 1006.3
З 2 20 км 10/10 600 м
[Sc]
-0.1 -2.5 84 -4 -4 тепло 1022.7 1006.0
З 2 20 км 10/10 600 м
[Sc]
-0.1 -6.1 64 -3 -3 по сезону 1022.7 1006.0 -0.1 0.1
С 2 20 км 8/8 1000 м
[Sc]
0.0 -5.7 65 -3 -3 по сезону 1022.6 1005.9
СЗ 1 20 км 9/9 1000 м
[Sc]
+0.5 -6.1 61 -1 -1 тепло 1023.2 1006.5
З 2 20 км 8/8 1000 м
[Sc]
+1.3 -5.7 60 -2 -1 по сезону 1022.2 1005.6
З 2 20 км 3/3 1000 м
[Cu Sc]
+2.5 -6.1 53 0 +3 по сезону 1021.2 1004.7
Ю 1 20 км 4/4 1000 м
[Cu hum Ci fib]
+3.6 -6.1 49 +3 +6 тепло 1020.1 1003.6
З 2 20 км 6/1 1000 м
[Cu hum Ci fib]
+4.0 -5.7 49 +2 +5 по сезону 1018.8 1002.4
Ю 2 20 км 5/1 1000 м
[Cu hum Cs]
+3.9 -4.8 53 +2 +4 по сезону 1017.6 1001.2
Ю 2 20 км 8/0
[Ac trans Cs]
+3.0 -4.0 60 0 +1 тепло 1016.9 1000.5
Ю 2 20 км 8/0
[Cs]
+2.4 -3.6 65 -0 -0 по сезону 1016.7 1000.2
Ю 2 20 км 9/0
[Cs]
+1.8 -3.3 69 -1 -1 по сезону 1016.6 1000.1
Ю 1 20 км 9/0
[Cs]
+1.4 -3.3 71 -0 -0 тепло 1016.3 999.8
Ю 2 20 км 9/0
[Ac trans Ci sp]
+1.4 -3.3 71 -2 -2 по сезону 1015.7 999.2 +4.6
Ю 1 20 км 10/4 1000 м
[Sc Ac As]
+1.5 -3.6 69 0 0 по сезону 1015.4 999.0
Ю 1 20 км 10/4 1000 м
[Sc Ac As]
+1.6 -3.6 68 0 0 тепло 1015.4 999.0
З 1 20 км 9/4 1000 м
[Sc Ac As]
+1.4 -3.3 71 -0 -0 по сезону 1016.1 999.6
З 2 20 км 10/10 1000 м
[Sc]
+1.7 -2.2 75 -1 -1 по сезону 1016.7 1000.2
З 2 15 км 10/10 1000 м
[Sc]
+1.4 -2.2 77 -2 -2 тепло 1016.9 1000.4
З 3 15 км 4/4 1000 м
[Sc]
+1.6 -2.2 76 -3 -3 по сезону 1016.8 1000.3
З 2 15 км 8/8 1000 м
[Sc]
+1.6 -1.9 78 -2 -2 по сезону 1016.9 1000.4
З 3 15 км 9/9 1000 м
[Sc]
+1.5 -1.2 82 -3 -3 тепло 1016.9 1000.4
З 3 15 км 9/9 1000 м
[Sc]
+1.8 -0.6 84 -2 -2 по сезону 1017.0 1000.5
З 2 15 км снежные зёрна 10/10 600 м
[St]
+2.0 -0.2 85 -1 -1 тепло 1017.3 1000.8
З 4 15 км в посл. час снег 9/9 600 м
[Sc]
+2.2 +0.1 86 -3 -3 тепло 1017.1 1000.6
З 3 15 км {снег} 10/10 1000 м
[Sc]
+2.6 -0.6 79 -1 -1 по сезону 1017.4 1001.0 +1.3 0.0 0.0
З 3 10 км 9/9 1000 м
[Sc]
+3.0 -1.4 73 -1 -1 тепло 1018.1 1001.7
З 2 20 км 6/6 1000 м
[Sc]
+3.7 -1.5 69 +1 +2 тепло 1018.6 1002.2
С 3 20 км 9/9 1000 м
[Cu Sc]
+4.9 -0.9 66 +2 +2 по сезону 1018.9 1002.6
СЗ 3 30 км 9/9 600 м
[Cu Sc]
+5.9 -1.5 59 +3 +4 тепло 1019.1 1002.8
СЗ 3 30 км 9/8 600 м
[Cu med, cong Ac trans]
+5.6 -1.2 62 +3 +3 тепло 1019.0 1002.7
СЗ 2 30 км 9/9 600 м
[Cu Sc]
+5.5 -1.5 61 +3 +4 по сезону 1018.7 1002.4
СЗ 4 20 км слаб. дождь 9/9 600 м
[Cu Sc]
+5.7 -1.2 61 +2 +2 по сезону 1018.7 1002.4
СЗ 2 20 км слаб. дождь {снег} 9/9 600 м
[Cu med, cong]
+4.9 -0.9 66 +3 +3 тепло 1019.1 1002.8
С 2 20 км в посл. час дождь {снег} 8/8 600 м
[Cu Sc]
+4.7 -0.6 68 +2 +2 по сезону 1019.6 1003.3
СЗ 3 30 км 5/3 600 м
[Cu Sc Ac trans]
+4.7 -0.6 68 +1 +1 по сезону 1020.1 1003.7
З 2 30 км 1/0
[Ac trans]
+3.8 -1.5 68 +1 +1 тепло 1020.7 1004.3
З 2 30 км {снег, дождь} 3/0
[Ac trans]
+3.3 -1.5 71 +1 +1 по сезону 1021.2 1004.7 +6.5 0.3
З 3 30 км 4/0
[Ac trans]
+3.0 -0.2 79 -1 -1 по сезону 1021.3 1004.8
СЗ 2 30 км 5/0
[Ac trans]
+3.1 +0.1 81 0 0 тепло 1021.3 1004.8
З 2 30 км 6/0
[Ac trans]
+3.1 +0.1 81 0 0 по сезону 1021.6 1005.1
З 2 30 км 1/0
[Ac trans]
+2.4 +0.1 85 -1 -1 по сезону 1021.4 1004.9
З 2 30 км 9/0
[Ac trans]
+2.8 -0.2 81 -0 -0 тепло 1021.4 1004.9
З 2 30 км 9/9
[Sc]
+2.5 -0.9 78 -1 -1 по сезону 1021.1 1004.6
З 3 30 км 10/10 1000 м
[Sc]
+2.6 -1.2 76 -1 -1 по сезону 1021.4 1004.9
З 2 30 км 9/9 1000 м
[Sc]
+2.6 -1.5 74 -0 -0 тепло 1020.8 1004.3
Ю 1 30 км 9/9 1000 м
[Sc]
+2.3 -1.2 78 +1 +1 по сезону 1020.4 1003.9
Ю 1 30 км 8/8 1000 м
[Sc]
+2.6 -1.9 72 +1 +1 тепло 1020.0 1003.5
З 2 30 км 10/10 1000 м
[Sc]
+3.1 -2.5 67 0 0 тепло 1020.2 1003.7
ЮЗ 1 25 км 9/9 1000 м
[Sc]
+3.6 -3.6 59 +3 +3 тепло 1020.2 1003.8 +2.3 0.3
З 3 25 км слаб. крупа 9/9 1000 м
[Cu Sc]
+3.9 -1.9 66 +1 +1 тепло 1021.1 1004.7
З 2 25 км {ливн. дождь, снег} 9/9 1000 м
[Cu Sc]
+4.0 -1.5 67 +2 +2 тепло 1021.4 1005.0
З 3 25 км {ливн. дождь, снег} 6/6 1000 м
[Sc]
+5.0 -1.5 63 +2 +3 по сезону 1021.4 1005.0
З 2 20 км 9/9 1000 м
[Sc]
+5.6 -1.9 58 +4 +4 тепло 1021.0 1004.7
З 2 20 км 8/5 1000 м
[Sc Ac trans]
+6.9 -0.9 58 +5 +7 тепло 1020.7 1004.5
СЗ 2 20 км {ливн. дождь, снег} 6/3 1000 м
[Sc Ac trans]
+8.3 -0.2 55 +7 +9 тепло 1019.8 1003.6 0.0
З 2 25 км 6/1 1000 м
[Sc Ac trans Cs]
+9.1 -0.9 50 +8 +10 тепло 1019.1 1003.0
З 2 30 км 4/0
[Ac trans Cs]
+10.2 -2.2 42 +9 +10 тепло 1018.5 1002.5
Ю 2 30 км 9/0
[Ac As]
+8.6 -0.9 51 +7 +7 тепло 1017.5 1001.4
Ю 2 30 км 9/0
[Ac As]
+7.8 -0.6 55 +6 +6 тепло 1017.3 1001.2
Ю 1 25 км 8/0
[Cs]
+6.6 -1.2 57 +6 +6 тепло 1017.4 1001.2
С 2 30 км 10/6 1000 м
[Sc As trans]
+6.8 -0.6 59 +5 +5 тепло 1019.0 1002.8 +10.5 0.0
СВ 3 30 км 9/9 1000 м
[Sc]
+5.8 -0.9 62 +3 +3 тепло 1020.0 1003.7
СЗ 1 30 км 6/0
[Ac trans Ci sp]
+5.2 -0.9 65 +4 +4 тепло 1019.7 1003.4
З 1 30 км 5/0
[Ac trans Ci sp]
+4.8 +0.1 72 +4 +4 по сезону 1019.7 1003.4
З 2 30 км 8/4 1000 м
[Sc Ac trans Ci sp]
+4.4 -0.2 72 +2 +2 тепло 1020.0 1003.6
ЮЗ 1 30 км 5/1 600 м
[Cu hum Ac trans]
+4.1 -0.2 74 +3 +3 тепло 1019.9 1003.5
Ю 1 30 км 9/9 1000 м
[Sc]
+4.2 -0.6 71 +3 +3 по сезону 1019.8 1003.4
Ю 2 30 км 6/4 1000 м
[Sc Ac trans]
+4.3 -0.9 69 +2 +2 тепло 1019.0 1002.6
Ю 3 30 км 8/8 1000 м
[Sc]
+4.3 -1.5 66 +1 +1 по сезону 1017.9 1001.5
Ю 2 30 км 6/0
[Ac trans Ci sp]
+5.3 -2.5 57 +3 +3 тепло 1017.2 1000.9
Ю 2 30 км 6/0
[Ac trans Ci sp]
+4.5 -2.5 60 +2 +2 тепло 1017.2 1000.8
З 2 30 км 9/9 1000 м
[Sc]
+4.7 -1.9 62 +2 +2 по сезону 1017.6 1001.2 +3.8 0.0
З 2 30 км слаб. дождь 10/10 1000 м
[Sc]
+4.3 -0.6 70 +2 +2 тепло 1018.7 1002.3
Местоположение метеостанции Белград (Сербия): широта 44.80 долгота 20.47 высота над уровнем моря 132 м.
В архиве по умолчанию представлена погода в Белграде за последнюю неделю. Архивные данные за месяц целиком и за предыдущие месяцы, начиная с января 2011 года, Вы можете получить, выбрав интересующий диапазон дат из раскрывающегося списка и нажав кнопку "Найти!".
*Определитесь, кто Вы:
Внимание! Время в таблицах - всемирное. Для получения местного времени необходимо прибавить поправку, которая равна 1 ч.
Смотрите также архив погоды в соседних городах и на ближайших метеорологических станциях:
Партнеры нашего сайта:      
Пояснения к столбцам:
  • Ветер - указаны скорость ветра в м/с - средняя за 10 мин, порывы в срок и между сроками (в фигурных скобках) и направление, откуда дует ветер: С - северный,
  • СВ - северо-восточный, В - восточный, ЮВ - юго-восточный, Ю - южный, ЮЗ - юго-западный, З - западный, СЗ - северо-западный.
  • Видимость - горизонтальная дальность видимости в метрах или километрах. При видимости от 1 до 10 км при отсутствии осадков обычно наблюдается дымка, при ухудшении видимости до 1 км и менее - туман. В сухую погоду видимость может ухудшаться дымом, пылью или мглою.
  • Явления - указаны атмосферные явления, наблюдавшиеся в срок или в последний час перед сроком; фигурными скобками обозначены явления, наблюдавшиеся между сроками (за 1-3 часа до срока); квадратными скобками обозначены град или гололедные отложения с указанием их диаметра в мм.
  • Облачность - указаны через наклонную черту общая и нижняя облачность в баллах и высота нижней границы облаков в метрах; квадратными скобками обозначены формы облаков: Ci - перистые, Cs - перисто-слоистые, Cc - перисто-кучевые, Ac - высококучевые, As - высокослоистые, Sc - слоисто-кучевые, Ns - слоисто-дождевые, Cu - кучевые, Cb - кучево-дождевые. Подробнее классификацию облаков см. в Атласе облаков (PDF).
  • T - Температура воздуха - температура, измеренная на высоте 2 м над землей.
  • Td - Температура точки росы - температура, при понижении до которой содержащийся в воздухе водяной пар достигнет насыщения.
  • f - Относительная влажность воздуха - влажноcть воздуха, измеренная на высоте 2 м над землей.
  • Te - Эффективная температура - температура, которую ощущает одетый по сезону человек в тени. Характеристика душности погоды. При расчете учитывается влияние влажности воздуха и скорости ветра на теплоощущения человека.
  • Tes - Эффективная температура на солнце - температура, которую ощущает человек, с поправкой на солнечный нагрев. Характеристика знойности погоды. Зависит от высоты солнца над горизонтом, облачности и скорости ветра. Ночью, в пасмурную погоду, а также при ветре 12 м/с и более поправка равна нулю.
  • P - Атмосферное давление - приведенное к уровню моря атмосферное давление.
  • Po - Атмосферное давление - измеренное на уровне метеостанции атмосферное давление.
  • Tmin - Минимальная температура - минимум температуры воздуха на высоте 2 м над землей.
  • Tmax - Максимальная температура - максимум температуры воздуха на высоте 2 м над землей.
  • R - Количество осадков - Количество выпавших осадков за период времени, мм. При наведении курсора мыши на число - период времени, за который выпало указанное количество осадков.
  • R24 - Количество осадков - Количество выпавших осадков за 24 часа, мм.
  • S - Снежный покров - Высота снежного покрова, см. При наведении курсора мыши на число - состояние снежного покрова и степень покрытия местности в баллах.